Location: Bidart
(43.4376°N, 1.5913°W)
Time: 07:58:23
(UTC+00:00)

USA 229 DEB - Pass Details

Date: 21 April 2026
Orbit: 844 x 1364 km, 63.4° (Epoch: 10 January)

Event Time Altitude Azimuth Distance (km) Brightness Sun altitude
Rises 02:30:58 0° 311° (NW) 4,120 6.8 -25.5°
Reaches altitude 10° 02:34:24 10° 297° (WNW) 3,231 6.1 -25.1°
Enters shadow 02:36:41 17° 282° (WNW) 2,797 5.6 -24.8°
